Location: Fremont
(37.5480°N, 121.9880°W)
Time: 06:28:23
(UTC-07:00)

Daily predictions for brighter satellites

Satellite Brightness Start Highest point End
(mag) Time Altitude Azimuth Time Altitude Azimuth Time Altitude Azimuth
Cosmos 1633 3.5 20:06:01 10° SSW 20:09:36 54° W 20:13:11 10° N
FREGAT/IRIS 3.8 20:07:30 10° S 20:10:33 48° W 20:13:36 10° NNW
Cosmos 1777 Rocket 4.0 20:05:42 10° NNW 20:10:59 84° ENE 20:16:15 10° SSE
OAO 2 Rocket 3.6 20:07:05 10° WSW 20:11:57 55° SSE 20:16:55 10° E
NOSS 7 (D) 4.5 20:09:32 10° SSW 20:13:06 86° NW 20:16:27 10° NNE
Cosmos 1697 Rocket 3.7 20:10:16 10° SSE 20:14:40 24° ESE 20:19:05 10° NE
Delta 2 Rocket 4.4 20:13:39 10° W 20:19:18 57° SSW 20:24:27 10° ESE
Resurs 01 Rocket 2.0 20:16:10 10° S 20:20:34 69° WSW 20:25:01 10° NNW
Cosmos 2278 3.7 20:16:25 10° SSW 20:22:05 82° ESE 20:27:48 10° NNE
Cosmos 1544 Rocket 3.6 20:18:01 10° S 20:22:22 85° W 20:26:49 10° N
METEOR-M 4.4 20:17:14 10° S 20:22:34 74° WSW 20:27:55 10° NNW
Meteor 2-4 Rocket 4.2 20:20:32 10° NNW 20:26:22 71° W 20:32:16 10° S
Cosmos 1934 Rocket 4.0 20:20:23 10° S 20:26:30 85° E 20:32:45 10° N
H-2A R/B 3.2 20:22:54 10° SSE 20:26:36 44° ENE 20:30:21 10° N
ALOS 2.3 20:22:04 10° SSE 20:26:39 60° ENE 20:31:16 10° N
Cosmos 1975 3.5 20:23:11 10° SSE 20:26:54 34° E 20:30:38 10° NNE
CZ-4B DEB 2.7 20:23:44 10° SSE 20:26:59 76° ENE 20:30:17 10° N
USA 186 2.4 20:25:01 10° SE 20:27:53 33° ENE 20:30:35 10° N
NOSS 3-4 (A) 3.9 20:21:54 10° NNW 20:29:01 87° ENE 20:36:31 10° SSE
NOSS 3-4 (C) 3.9 20:22:01 10° NNW 20:29:08 86° ENE 20:36:39 10° SSE
Cosmos 2208 Rocket 4.3 20:26:50 10° SSW 20:32:08 75° WNW 20:37:32 10° NNE
Spot 2 Rocket 4.3 20:27:44 10° S 20:32:42 53° W 20:37:41 10° NNW
Helios 1B rocket 4.1 20:28:58 10° N 20:32:48 38° WNW 20:36:36 10° SW
Lacrosse 5 rocket 1.5 20:31:19 10° NNW 20:34:55 46° NE 20:37:27 17° ESE
OTV 4 0.7 20:32:13 10° W 20:35:08 55° SSW 20:37:04 18° ESE
Cosmos 2369 3.8 20:30:35 10° SSW 20:36:15 86° WNW 20:41:59 10° NNE
Cosmos 1980 Rocket 3.3 20:33:31 10° SSE 20:37:47 22° E 20:42:05 10° NE
Okean 2 3.8 20:34:34 10° NNW 20:38:43 68° W 20:42:49 10° S
BREEZE-M DEB (TANK) 4.0 20:39:12 10° SW 20:42:52 85° NNW 20:55:35 10° NE
Envisat 4.2 20:40:38 16° ESE 20:43:19 24° ENE 20:47:19 10° NNE
EO 1 Delta rocket 4.0 20:39:21 10° NNE 20:44:07 80° E 20:49:43 10° S
CZ-2D R/B 3.2 20:43:23 10° SSE 20:47:15 88° WSW 20:51:09 10° NNW
Iridium 4 Rocket 3.6 20:42:32 10° N 20:47:20 46° E 20:51:24 12° SSE
Tiangong 1 2.6 20:46:32 10° WNW 20:49:19 30° N 20:51:19 15° ENE
Hubble Space Telescope 3.2 20:51:46 10° SW 20:53:05 11° SSW 20:54:24 10° S
FENGYUN 3A 3.9 20:53:03 10° S 20:58:23 70° WSW 21:03:44 10° NNW
Cosmos 1500 3.2 20:55:55 10° S 20:59:34 52° E 21:03:14 10° NNE
Meteor 1-12 Rocket 4.3 20:55:04 10° S 21:00:47 85° W 21:06:39 10° N
Cosmos 1656 3.6 20:56:27 10° SSW 21:02:05 87° ESE 21:07:41 10° NNE
Cosmos 1939 Rocket 3.7 21:01:50 28° ESE 21:03:05 35° ENE 21:06:53 10° N
Cosmos 2150 Rocket 4.2 21:02:12 10° N 21:07:14 52° ENE 21:09:44 28° SE
Cosmos 2227 Rocket 2.7 21:03:06 10° NNW 21:08:41 59° WSW 21:14:12 10° S
BREEZE-M TANK 3.8 20:58:15 10° WNW 21:09:57 55° N 21:12:07 25° E
Cosmos 1461 3.9 21:06:27 10° NW 21:10:14 40° WSW 21:13:00 16° S
Cosmos 2173 Rocket 4.2 21:04:36 10° SSE 21:10:42 51° E 21:16:48 10° NNE
ERS-1 Rocket 3.1 21:08:10 25° SE 21:10:59 57° ENE 21:15:55 10° N
Cosmos 1340 4.1 21:09:10 10° NNE 21:11:43 22° ENE 21:11:43 22° ENE
Lacrosse 5 2.5 21:08:34 10° NNW 21:13:22 41° NE 21:15:16 29° E
YAOGAN 11 4.1 21:15:32 28° SSE 21:17:55 76° ENE 21:22:23 10° N
H-2A R/B 2.8 21:17:55 31° ENE 21:18:01 31° ENE 21:21:41 10° N
SPOT 5 3.7 21:19:03 30° E 21:19:48 32° ENE 21:24:06 10° N
DELTA 2 R/B (1) 3.5 21:15:21 10° WNW 21:20:56 79° SSW 21:23:11 37° ESE
Cosmos 1763 Rocket 3.7 21:21:33 33° SSE 21:23:10 44° ESE 21:27:59 10° NNE
Cosmos 1626 Rocket 4.2 21:19:23 10° NNW 21:23:40 54° W 21:27:26 13° SSW
Cosmos 2297 Rocket 2.6 21:18:22 10° NNW 21:23:57 63° WSW 21:28:02 19° S
Cosmos 2100 Rocket 3.9 21:18:15 10° S 21:24:30 73° E 21:30:44 10° N
Cosmos 1515 3.9 21:21:12 10° NNW 21:25:02 69° W 21:26:46 30° S
Cosmos 1898 Rocket 3.4 21:20:44 10° NNW 21:26:03 84° ENE 21:28:26 34° SSE
CZ-4 DEB 2.8 21:28:30 64° SW 21:28:44 68° WSW 21:31:52 10° NNW
Cosmos 2061 Rocket 3.9 21:25:38 10° S 21:31:56 76° E 21:38:12 10° N
RESURS DK-1 2.4 21:28:06 10° NNW 21:32:11 56° ENE 21:32:21 56° ENE
Cosmos 1758 Rocket 4.5 21:31:27 10° NNE 21:34:39 32° NE 21:34:39 32° NE
Cosmos 2084 3.3 21:32:25 10° NW 21:36:33 80° WSW 21:37:09 63° S
MetOp-A 4.5 21:36:01 42° E 21:36:45 44° ENE 21:41:48 10° N
Cosmos 1743 2.6 21:36:51 72° S 21:37:14 87° E 21:41:10 10° N
deb Chang Zheng 4 3.5 21:33:20 10° NNE 21:37:47 64° ESE 21:38:05 62° SE
Nimbus 7 Rocket 4.4 21:33:05 10° NNE 21:39:08 65° ESE 21:42:46 25° S
Cosmos 841 Rocket 3.4 21:44:51 55° SSE 21:45:44 65° ESE 21:50:55 10° NNE
Terra 4.2 21:50:19 11° NE 21:50:19 11° NE 21:50:52 10° NE
Cosmos 1459 Rocket 4.2 21:50:16 10° SSW 21:56:16 66° W 22:02:20 10° N
OAO 2 Rocket 3.3 21:51:34 10° W 21:56:23 65° SSW 21:56:23 65° SSW
Cosmos 1725 Rocket 3.9 21:57:34 57° ESE 21:58:00 58° E 22:04:06 10° NNE
Cosmos 2058 Rocket 3.9 21:59:31 40° NNE 21:59:31 40° NNE 22:02:33 10° NNE
Cosmos 1697 Rocket 3.8 21:52:59 10° SW 21:58:19 43° WNW 22:03:41 10° N
Cosmos 1606 Rocket 3.8 22:04:30 64° W 22:04:35 64° W 22:09:00 10° N
SL-16 R/B 3.7 22:09:53 24° NE 22:09:53 24° NE 22:12:12 10° NE
ASTEX 1 3.4 22:06:47 10° N 22:11:45 80° WNW 22:11:45 80° WNW
Lacrosse 5 rocket 3.7 22:11:52 10° W 22:13:11 13° WSW 22:13:11 13° WSW
ARGOS 3.5 22:16:35 54° NE 22:16:35 54° NE 22:21:06 10° N
CZ-3C R/B 4.1 21:58:47 10° W 22:17:51 24° SW 22:20:47 21° SSW
Cosmos 1980 Rocket 3.2 22:15:59 10° SW 22:21:24 46° WNW 22:26:52 10° N
Envisat 4.2 22:20:52 32° SW 22:22:05 36° W 22:26:47 10° NNW
Cosmos 2233 Rocket 4.5 22:24:24 46° NE 22:24:24 46° NE 22:29:03 10° NNE
Tiangong 1 4.5 22:23:00 10° WNW 22:23:17 12° WNW 22:23:17 12° WNW
BREEZE-M DEB (TANK) 4.3 22:11:03 10° WNW 22:29:09 52° NNE 22:30:47 43° NE
MetOp-B 4.4 22:30:24 61° W 22:30:24 61° W 22:35:32 10° NNW
H-2A R/B 3.5 22:39:08 29° NNE 22:39:08 29° NNE 22:41:41 10° N
Milstar 3 Cent rocket 4.2 22:33:32 10° W 22:50:20 46° SSW 22:51:21 45° SSW
Cosmos 2263 Rocket 3.4 22:45:27 10° N 22:48:52 33° NNE 22:48:52 33° NNE
Cosmos 2322 Rocket 3.2 22:56:07 40° N 22:56:07 40° N 22:59:46 10° NNE
Lacrosse 5 3.7 22:51:47 10° WNW 22:54:28 24° W 22:54:28 24° W
Terra 4.2 23:29:13 21° NNW 23:29:13 21° NNW 23:30:45 10° NNW
USA 215 3.9 23:37:56 49° NW 23:37:56 49° NW 23:42:32 10° NW
SL-16 R/B 4.2 23:51:41 23° NW 23:51:41 23° NW 23:55:38 10° N
